Location: Buckland
(65.9785°N, 161.1281°W)
Time: 07:03:19
(UTC+00:00)

Transit 2A Rocket - Pass Details

Date: 28 November 2020
Orbit: 592 x 910 km, 66.7° (Epoch: 21 January)

Event Time Altitude Azimuth Distance (km) Brightness Sun altitude
Exits shadow 17:40:22 17° 278° (W) 1,916 6.5 -13.0°
Maximum altitude 17:44:36 84° 8° (N) 767 5.0 -12.6°
Drops below altitude 10° 17:49:36 10° 96° (E) 2,180 8.6 -12.1°
Sets 17:51:50 0° 97° (E) 3,049 9.6 -11.9°
